Miscellaneous Local Product
Issued by NWS Hastings, NE

Home | Current Version | Previous Version | Graphics & Text | Print | Product List | Glossary On
Versions: 1 2 3 4 5 6 7 8 9 10 11 12 13 14 15 16 17 18 19 20 21 22 23 24 25 26 27 28 29 30 31 32 33 34 35 36 37 38 39 40 41 42 43 44 45 46 47 48 49 50
000
AXUS43 KGID 300502
MISGRI

GID CWA HOURLY WEATHER ROUNDUP
NATIONAL WEATHER SERVICE HASTINGS NE
1100 PM CST THU JAN 29 2015

NOTE: "FAIR" INDICATES FEW OR NO CLOUDS BELOW 12,000 FEET WITH NO
SIGNIFICANT WEATHER AND/OR OBSTRUCTIONS TO VISIBILITY.

...SOUTH CENTRAL NEBRASKA...

CITY           SKY/WX    TMP DP  RH WIND       PRES   REMARKS
GRAND ISLAND     N/A     24  18  77 MISG      30.51S
HASTINGS       PTCLDY    23  15  71 CALM      30.50R
KEARNEY        PTCLDY    25  16  68 NW5       30.49S WCI  19
ORD            CLEAR     18  14  84 CALM      30.48S
YORK           CLEAR     25  21  86 NE7       30.52S WCI  17
AURORA         PTCLDY    26  21  81 E3        30.50S
LEXINGTON      PTCLDY    22  17  84 CALM      30.48S
HOLDREGE       PTCLDY    22  16  75 CALM      30.48S
HEBRON         PTCLDY    20  14  79 CALM      30.52S

...NEBRASKA PANHANDLE...

CITY           SKY/WX    TMP DP  RH WIND       PRES   REMARKS
CHADRON        CLEAR     30  19  63 CALM      30.36F
ALLIANCE       CLEAR     24  18  77 S7        30.37F WCI  16
SCOTTSBLUFF    MOCLDY    28  22  78 E9        30.37F WCI  19
SIDNEY         MOCLDY    27  19  72 S7        30.39F WCI  19

...WESTERN AND NORTH CENTRAL NEBRASKA...

CITY           SKY/WX    TMP DP  RH WIND       PRES   REMARKS
VALENTINE      CLEAR     24  18  77 NE3       30.43F
AINSWORTH      CLEAR     22  18  84 S5        30.45S WCI  16
ONEILL         CLEAR     23  21  92 E5        30.50S WCI  17
BROKEN BOW     CLEAR     20  14  77 CALM      30.47S
IMPERIAL       PTCLDY    26  17  68 S5        30.45S WCI  20
NORTH PLATTE   PTCLDY    18  13  80 E3        30.46S
MCCOOK         CLEAR     23  17  78 W7        30.48S WCI  15

...EASTERN NEBRASKA...

CITY           SKY/WX    TMP DP  RH WIND       PRES   REMARKS
NORFOLK        CLEAR     22  18  85 CALM      30.52R
SO SIOUX CITY  MOCLDY    27  19  72 NE7       30.55R WCI  19
TEKAMAH        CLEAR     27  20  75 N7        30.54F WCI  19
COLUMBUS       CLEAR     21  10  63 CALM      30.54S
ALBION         PTCLDY    20  16  86 CALM      30.51S
OMAHA EPPLEY   PTCLDY    28  22  78 N9        30.54S WCI  19
OFFUTT AFB     CLEAR     28  21  74 VRB7      30.53F WCI  21
LINCOLN        CLEAR     24  20  84 N3        30.55S
NEBRASKA CITY  CLEAR     25  19  77 N6        30.53S WCI  18
BEATRICE       CLEAR     23  19  86 NE3       30.54R
FALLS CITY     CLEAR     24  19  81 NW5       30.54R WCI  18

...NORTHERN KANSAS...

CITY           SKY/WX    TMP DP  RH WIND       PRES   REMARKS
GOODLAND       PTCLDY    28  21  75 S9        30.46F WCI  19
HILL CITY      CLEAR     21  14  74 CALM      30.51S
NORTON         CLEAR     21  16  79 SW7       30.49S WCI  13
PHILLIPSBURG   CLEAR     25  19  80 W6        30.51S WCI  18
SMITH CENTER   CLEAR     25  16  68 CALM      30.51S
BELOIT         CLEAR     21  18  86 CALM      30.52R
HAYS           CLEAR     27  12  54 NW6       30.51S WCI  20
RUSSELL        CLEAR     27  21  78 W5        30.51R WCI  22
CONCORDIA      CLEAR     28  21  75 E3        30.51S
SALINA         CLEAR     27  20  75 CALM      30.53R
TOPEKA         CLEAR     25  23  92 NW3       30.54S



USA.gov is the U.S. government's official web portal to all federal, state and local government web resources and services.